TV
NORAD ID: 24786
Int'l Code: 1997-019A
Perigee: 36,010.5 km
Apogee: 36,225.8 km
Inclination: 6.8 °
Period: 1,452.7 minutes
Semi major axis: 42489 km
Launch date: April 25, 1997
Source: United States (US)
Comments: Cloud cover images, monitor atmospheric temperatures and moistures at many altitudes.
Two Line Element Set (TLE):
1 24786U 97019A 13141.58890765 -.00000245 00000-0 10000-3 0 7805
2 24786 006.7930 056.9578 0025344 106.3695 253.7462 00.99125631 58741
Source: AFSPC
NASA's NSSDC Master Catalog entry for GOES 10